Skip Page Navigation
NASA JPL Caltech
NASA Logo - Jet Propulsion Laboratory + View the NASA Portal
+ Center for Near-Earth Object Studies
JPL Home Earth Solar System Stars & Galaxies Technology
JPL Solar System Dynamics
BODIES ORBITS EPHEMERIDES TOOLS PHYSICAL DATA DISCOVERY FAQ SITE MAP
JPL Small-Body Database Browser
Search: [ help ]  
119 Althaea (A872 GA)
Classification: Main-belt Asteroid          SPK-ID: 2000119
Ephemeris | Orbit Diagram | Orbital Elements | Mission Design | Physical Parameters | Discovery Circumstances | Close-Approach Data ]

[ hide orbit diagram ]

For accurate long-term ephemerides, please instead use our Horizons system.This orbit viewer was implemented using two-body methods, and hence should not be used for determining accurate long-term trajectories (over several years or decades) or planetary encounter circumstances.


Orbital Elements at Epoch 2459200.5 (2020-Dec-17.0) TDB
Reference: JPL 89 (heliocentric ecliptic J2000)
 Element Value Uncertainty (1-sigma)   Units 
e .08086984737160395 9.3243e-09  
a 2.581815797464789 4.0338e-09 au
q 2.373024747982215 2.351e-08 au
i 5.785664619208169 3.3594e-07 deg
node 203.6381324363251 3.7951e-06 deg
peri 171.3954237289656 1.7817e-05 deg
M 133.5217506502069 1.6572e-05 deg
tp 2458638.500635193603
(2019-Jun-04.00063519)
6.9821e-05 TDB
period 1515.257029997528
4.15
3.5511e-06
9.722e-09
d
yr
n .2375834547361166 5.5679e-10 deg/d
Q 2.790606846947362 4.36e-09 au
  Orbit Determination Parameters
   # obs. used (total)      3260  
   data-arc span      54388 days (148.91 yr)  
   first obs. used      1872-04-13  
   last obs. used      2021-03-11  
   planetary ephem.      DE441  
   SB-pert. ephem.      SB441-N16  
   condition code      0  
   norm. resid. RMS      .50319  
   source      ORB  
   producer      Otto Matic  
   solution date      2021-Apr-12 10:19:09  

Additional Information
 Earth MOID = 1.37273 au 
 Jupiter MOID = 2.58352 au 
 T_jup = 3.412 
[ show covariance matrix ]

Ephemeris | Orbit Diagram | Orbital Elements | Mission Design | Physical Parameters | Discovery Circumstances | Close-Approach Data ]

Physical Parameter Table
Parameter Symbol Value Units Sigma Reference Notes
absolute magnitude H 8.35   n/a E2021B10 IRAS observations used: 17
diameter diameter 57.30 km 1.1 IRAS-A-FPA-3-RDR-IMPS-V6.0 IRAS observations used: 17
rotation period rot_per 11.484 h n/a LCDB (Rev. 2020-October); Warner et al., 2009 Published Reference List:
[Gil Hutton, R. (1990) Minor Planet Bull. 17, 15-17.]
[Weidenschilling, S.J.; Chapman, C.R.; Davis, D.R.; Greenberg, R.; et al. (1990) Icarus 86, 402-447.]
[Behrend, R. (2002) Observatoire de Geneve web site, http://obswww.unige.ch/~behrend/page_cou.html]
[Shevchenko, V.G.; Bel'skaya, I.N.; Krugly, Yu.N.; Chiorny, V.G.; Gaftonyuk, N.M. (2002) Icarus 155, 365-374.]
[Tungalag, N.; Shevchenko, V.G.; Lupishko, D.F. (2002) Kin. Fiz. Neb. Tel 18, 508-516; Kinematics and Physics of Celestial Bodies 18, ???-???.]
[Durech, J.; Kaasalainen, M.; Warner, B.D.; Fauerbach, M.; et al. (2009) Astron. Astrophys. 493, 291-297.]
[Hanus, J.; Durech, J.; Broz, M.; Warner, B.D.; et al. (2011) Astron. Astrophys. 530, A134.]
geometric albedo albedo 0.2306   0.010 IRAS-A-FPA-3-RDR-IMPS-V6.0 IRAS observations used: 17
B-V BV 0.874   0.021 EAR-A-5-DDR-UBV-MEAN-VALUES-V1.2 #obs=4; phase (min.=4.97, mean=6.52, max.=8.30) deg.
U-B UB 0.342   0.228 EAR-A-5-DDR-UBV-MEAN-VALUES-V1.2 #obs=4; phase (min.=4.97, mean=6.52, max.=8.30) deg.
Tholen spectral type spec_T S   n/a EAR-A-5-DDR-TAXONOMY-V4.0 used 7 color indices; used ground-based radiometric albedo
SMASSII spectral type spec_B Sl   n/a EAR-A-5-DDR-TAXONOMY-V4.0 based on a high-resolution spectrum by Xu et al. (1995) or Bus and Binzel (2002)

119 Althaea (A872 GA)          Discovered 1872-Apr-03 by Watson, J. C. at Ann Arbor
Reference: DISCOVERY.DBLast Updated: 2003-08-29

[ hide close-approach data ]
Close-Approach Data   ...sorted by Date/Time (TDB)
Date/Time (TDB) Time Uncertainty
(days_HH:MM)
Body Nominal Distance (au) Minimum Distance (au) Maximum Distance (au) V-relative (km/s) V-infinity (km/s) JD (TDB) Time Uncertainty (minutes) Semi-major axis (km) Semi-minor axis (km) range-LOV angle (deg) N-sigma BP Orbit Ref. Reference Modified
2124-Jun-06 02:18 < 00:01 Eunom 0.0467247896417246 0.0467205962148234 0.0467289830784155 4.38182916808215 4.38182909951894 2496991.595995333 0.472119957249908 211.638181766018 21.6845180671783 -9.24170074134236 61120.2604317578 T 89 CATAB v2.0f-lin.ifort 2021-Apr-12 10:20:37 2021-Apr-12 10:20

Alternate Designations
 A872 GA = 1972 KO 
Ephemeris | Orbit Diagram | Orbital Elements | Mission Design | Physical Parameters | Discovery Circumstances | Close-Approach Data ]
ABOUT SSD CREDITS/AWARDS PRIVACY/COPYRIGHT GLOSSARY LINKS
FirstGov 2021-Apr-16 09:06 UT
(server date/time)  
NASA Home Page
Site Manager:   Ryan S. Park
Webmaster  Alan B. Chamberlin